STARLINK-34264

Last updated on Sat Jul 05 2025 00:02:05 GMT+0000 (Coordinated Universal Time)

1 64277U 25120X 25185.58335648 .00003949 00000+0 10866-3 0 9997 2 64277 53.1599 193.3255 0000902 80.1203 173.6145 15.39616548 5913
UTC large
Height (km)
Speed (km/s)
/
Latitude / Longitude
Inclination (degrees)
Orbital Period (minutes)
Azimuth
Elevation
Range (km)
Doppler Factor

Next 0 passes for location: London (51.5072 / 0.1276)

Sorry there are no passes over London.